Weather Service Report


797 
ASUS41 KGYX 230505
RWRGYX
WEATHER ROUNDUP FOR MAINE AND NEW HAMPSHIRE
NATIONAL WEATHER SERVICE GRAY ME
100 AM EDT SAT AUG 23 2014

MEZ002-005-006-010-012-015-018-020-021-024-026-027-029-230600-
MAINE
  
CITY           SKY/WX    TMP DP  RH WIND       PRES   REMARKS
PORTLAND       CLEAR     56  54  93 NW3       30.14S                  
SANFORD        PTCLDY    57  52  82 CALM      30.14F                  
BAR HARBOR     CLOUDY    63  61  94 N3        30.12S                  
WISCASSET      PTCLDY    56  54  93 CALM      30.14F                  
ROCKLAND       CLOUDY    61  55  82 NW5       30.11F                  
FRYEBURG       MOCLDY    56  55  97 CALM      30.16F FOG              
LEWISTONAUBURN CLEAR     55  52  88 CALM      30.14F VSB 1            
AUGUSTA        CLOUDY    62  59  90 N3        30.14F                  
WATERVILLE     CLOUDY    61  57  88 N3        30.10F                  
BANGOR         CLOUDY    64  56  75 N5        30.14S                  
GREENVILLE       N/A     57  54  89 CALM      30.15F                  
MILLINOCKET    CLOUDY    62  57  83 CALM      30.16F                  
HOULTON        CLOUDY    59  56  89 CALM      30.14S                  
PRESQUE ISLE   CLOUDY    57  54  88 CALM      30.15S                  
FRENCHVILLE    CLEAR     55  54  96 NW5       30.15F                  
CARIBOU        MOCLDY    59  57  93 CALM      30.15S                  
$$

NHZ002-005-008-009-011-012-014-230600-
NEW HAMPSHIRE
  
CITY           SKY/WX    TMP DP  RH WIND       PRES   REMARKS
PORTSMOUTH     CLOUDY    61  56  84 N5        30.11F                  
ROCHESTER      CLOUDY    60  55  83 N5        30.13S                  
NASHUA         MOCLDY    62  58  87 CALM      30.13F                  
MANCHESTER     CLOUDY    62  56  80 N6        30.11F                  
CONCORD        CLOUDY    61  57  87 CALM      30.13F                  
LACONIA        CLOUDY    61  55  82 E3        30.13S                  
PLYMOUTH       CLOUDY    60  60 100 CALM      30.14F                  
BERLIN         FOG       57  57 100 NW3       30.16S VSB 1/4          
WHITEFIELD     CLOUDY    61  59  93 CALM      30.15S                  
JAFFREY        CLOUDY    59  57  93 CALM      30.14F                  
LEBANON        CLOUDY    62  59  90 N3        30.14S                  
MT WASHINGTON  PTCLDY    45  41  87 E16         N/A                   
$$

VTZ005-007-008-230600-
VERMONT
  
CITY           SKY/WX    TMP DP  RH WIND       PRES   REMARKS
ST JOHNSBURY     N/A     61  61 100 MISG      30.13S                  
MONTPELIER     CLOUDY    59  58  96 CALM      30.19S                  
BURLINGTON     CLOUDY    64  61  90 CALM      30.12F                  
$$

MAZ007-012-024-CTZ003-RIZ002-NYZ038-NYZ072-230600-
SOUTHERN NEW ENGLAND AND NY
  
CITY           SKY/WX    TMP DP  RH WIND       PRES   REMARKS
BOSTON         MOCLDY    64  60  87 N9        30.10S                  
WORCESTER      CLOUDY    60  58  92 NE7       30.12S                  
NANTUCKET      PTCLDY    62  60  93 NE7       30.05F                  
PROVIDENCE     PTCLDY    64  60  87 NE8       30.09S                  
HARTFORD       MOCLDY    65  62  90 N6        30.09S                  
ALBANY         CLOUDY    64  62  93 N3        30.10S                  
NEW YORK CITY  MOCLDY    69  56  62 E12       30.05S                  
$$

ANZ081-ANZ082-ANZ150-NHZ014-MEZ023>029-230600-
COASTAL MARINE OBSERVATIONS
  
STATION/POSITION TIME  TEMP    WIND        PRES    WAVE
                       AIR SEA DIR/SP/G            HT/PER
                 (UTC) (F)     (DEG/KT/KT) (MB)    (FT/S)
MATINICUS ROCK   0400          360/ 10/ 11 1019.4F
PORTLAND WX BUOY 0450   62 61  360/  6/  8 1019.9F   2/ 8
WELLS            0400   59 62   10/  5/  6 1019.5S
ISLE OF SHOALS   0400   62      40/ 13/ 14 1019.3R
JEFFREYS LEDGE   0421      66                N/A     3/ 8
CASHES LEDGE BUO 0450   63 67              1018.8F   3/ 8
$$

.............KEY..............
   WCI - WIND CHILL
   TC  - TEMPERATURE IN CELSIUS
   VSB - VISIBILITY IN MILES
   HX  - HEAT INDEX
   FAIR- INDICATES FEW OR NO CLOUDS BELOW 12,000 FT, WITH NO 
         SIGNIFICANT WEATHER AND/OR OBSTRUCTIONS TO VISIBILITY.



Return to Home page


Western Regional Climate Center, wrcc@dri.edu